Location: Chanteloup
(48.8560°N, 2.7390°E)
Time: 15:11:15
(UTC+00:00)

Cosmos 2360 Rocket - Pass Details

Date: 24 October 2021
Orbit: 832 x 846 km, 71.0° (Epoch: 28 November)

Event Time Altitude Azimuth Distance (km) Brightness Sun altitude
Rises 19:57:46 0° 235° (SW) 3,384 5.8 -32.5°
Reaches altitude 10° 20:00:24 10° 244° (WSW) 2,455 5.1 -32.9°
Maximum altitude 20:05:33 36° 310° (NW) 1,321 3.6 -33.6°
Enters shadow 20:07:54 26° 354° (N) 1,626 3.8 -34.0°
